| time (UTC) | temp C | wind direction | speed KPH | gust KPH | rain 1hr cm | rain 24hr cm | rain mn cm | humidity % | barometer mb |
| 20260902203704 | 18 | 270 | 4.8 | 9.7 | 0.08 | 0.08 | 0.08 | 76 | 1004.4 |
| 20260902203203 | 18 | 228 | 3.2 | 14.5 | 0.08 | 0.08 | 0.08 | 74 | 1004.4 |
| 20260902200704 | 18 | 294 | 0.0 | 3.2 | 0.08 | 0.08 | 0.08 | 81 | 1004.6 |
| 20260902200205 | 17 | 327 | 3.2 | 27.4 | 0.08 | 0.08 | 0.08 | 80 | 1004.6 |
| 20260902193704 | 17 | 201 | 9.7 | 25.7 | 0.00 | 0.00 | 0.00 | 76 | 1005.0 |
| 20260902193204 | 18 | 252 | 11.3 | 29.0 | 0.00 | 0.00 | 0.00 | 68 | 1004.9 |
| 20260902190205 | 21 | 161 | 3.2 | 14.5 | 0.00 | 0.00 | 0.00 | 59 | 1004.6 |
| 20260902183704 | 20 | 112 | 4.8 | 4.8 | 0.00 | 0.00 | 0.00 | 63 | 1004.8 |
| 20260902183204 | 20 | 169 | 3.2 | 12.9 | 0.00 | 0.00 | 0.00 | 64 | 1004.8 |
| 20260902180704 | 18 | 105 | 3.2 | 4.8 | 0.00 | 0.00 | 0.00 | 69 | 1005.1 |
| 20260902180204 | 18 | 140 | 0.0 | 11.3 | 0.00 | 0.00 | 0.00 | 67 | 1005.2 |
| 20260902173704 | 18 | 135 | 1.6 | 4.8 | 0.00 | 0.00 | 0.00 | 69 | 1005.5 |
| 20260902173204 | 18 | 159 | 1.6 | 11.3 | 0.00 | 0.00 | 0.00 | 69 | 1005.5 |
| 20260902170704 | 18 | 129 | 3.2 | 8.0 | 0.00 | 0.00 | 0.00 | 68 | 1005.8 |
| 20260902163704 | 18 | 163 | 4.8 | 9.7 | 0.00 | 0.00 | 0.00 | 68 | 1006.0 |
| 20260902163204 | 18 | 169 | 4.8 | 9.7 | 0.00 | 0.00 | 0.00 | 68 | 1006.1 |
| 20260902160704 | 18 | 143 | 1.6 | 3.2 | 0.00 | 0.00 | 0.00 | 72 | 1006.2 |
| 20260902160204 | 18 | 143 | 3.2 | 8.0 | 0.00 | 0.00 | 0.00 | 72 | 1006.2 |
| 20260902153704 | 17 | 167 | 3.2 | 4.8 | 0.00 | 0.00 | 0.00 | 80 | 1006.5 |
| 20260902150704 | 16 | 74 | 1.6 | 4.8 | 0.00 | 0.00 | 0.00 | 84 | 1006.8 |
| 20260902150204 | 16 | 61 | 3.2 | 4.8 | 0.00 | 0.00 | 0.00 | 85 | 1006.9 |
| 20260902143203 | 15 | 80 | 1.6 | 8.0 | 0.00 | 0.00 | 0.00 | 86 | 1007.4 |
| 20260902140704 | 15 | 101 | 0.0 | 0.0 | 0.00 | 0.00 | 0.00 | 88 | 1007.4 |
| 20260902133703 | 15 | 101 | 1.6 | 4.8 | 0.00 | 0.00 | 0.00 | 89 | 1007.4 |
| 20260902133203 | 14 | 101 | 1.6 | 4.8 | 0.00 | 0.00 | 0.00 | 90 | 1007.4 |
| 20260902130204 | 15 | 101 | 1.6 | 4.8 | 0.00 | 0.00 | 0.00 | 87 | 1007.6 |
| 20260902123704 | 16 | 101 | 1.6 | 3.2 | 0.00 | 0.00 | 0.00 | 86 | 1007.8 |
| 20260902123204 | 16 | 101 | 1.6 | 8.0 | 0.00 | 0.00 | 0.00 | 85 | 1007.8 |
| 20260902120704 | 16 | 115 | 1.6 | 4.8 | 0.00 | 0.00 | 0.00 | 85 | 1007.9 |
| 20260902120204 | 16 | 113 | 1.6 | 8.0 | 0.00 | 0.00 | 0.00 | 86 | 1007.9 |
| 20260902113703 | 15 | 114 | 3.2 | 4.8 | 0.00 | 0.00 | 0.00 | 87 | 1008.1 |
| 20260902110704 | 15 | 93 | 3.2 | 4.8 | 0.00 | 0.00 | 0.00 | 87 | 1008.4 |
| 20260902110203 | 15 | 119 | 1.6 | 4.8 | 0.00 | 0.00 | 0.00 | 87 | 1008.4 |
| 20260902103704 | 15 | 141 | 3.2 | 4.8 | 0.00 | 0.00 | 0.00 | 89 | 1008.5 |
| 20260902103204 | 15 | 111 | 3.2 | 8.0 | 0.00 | 0.00 | 0.00 | 89 | 1008.5 |
| 20260902100704 | 15 | 103 | 1.6 | 4.8 | 0.00 | 0.00 | 0.00 | 89 | 1008.8 |
| 20260902100204 | 15 | 83 | 3.2 | 4.8 | 0.00 | 0.00 | 0.00 | 89 | 1008.8 |
| 20260902093204 | 16 | 81 | 1.6 | 4.8 | 0.00 | 0.00 | 0.00 | 89 | 1008.8 |
| 20260902090704 | 16 | 154 | 1.6 | 8.0 | 0.00 | 0.00 | 0.00 | 88 | 1008.9 |
| 20260902090205 | 16 | 188 | 1.6 | 4.8 | 0.00 | 0.00 | 0.00 | 89 | 1009.0 |
| 20260902083704 | 16 | 115 | 3.2 | 9.7 | 0.00 | 0.00 | 0.00 | 88 | 1009.3 |
| 20260902083204 | 16 | 128 | 1.6 | 4.8 | 0.00 | 0.00 | 0.00 | 87 | 1009.4 |
| 20260902080703 | 16 | 106 | 1.6 | 4.8 | 0.00 | 0.00 | 0.00 | 87 | 1009.4 |
| 20260902080204 | 16 | 84 | 1.6 | 4.8 | 0.00 | 0.00 | 0.00 | 87 | 1009.4 |
| 20260902073703 | 16 | 83 | 3.2 | 4.8 | 0.00 | 0.00 | 0.00 | 86 | 1009.5 |
| 20260902073205 | 16 | 102 | 3.2 | 11.3 | 0.00 | 0.00 | 0.00 | 86 | 1009.6 |
| 20260902070703 | 16 | 126 | 3.2 | 4.8 | 0.00 | 0.00 | 0.00 | 87 | 1009.7 |
| 20260902070204 | 16 | 111 | 3.2 | 8.0 | 0.00 | 0.00 | 0.00 | 87 | 1009.7 |
| 20260902060704 | 16 | 110 | 3.2 | 4.8 | 0.00 | 0.00 | 0.00 | 87 | 1009.8 |
| 20260902060204 | 16 | 82 | 3.2 | 11.3 | 0.00 | 0.00 | 0.00 | 87 | 1009.8 |
| 20260902053704 | 16 | 84 | 1.6 | 4.8 | 0.00 | 0.00 | 0.00 | 87 | 1010.0 |
| 20260902053204 | 16 | 111 | 3.2 | 11.3 | 0.00 | 0.00 | 0.00 | 87 | 1010.0 |
| 20260902050204 | 16 | 122 | 3.2 | 9.7 | 0.00 | 0.00 | 0.00 | 87 | 1010.1 |
| 20260902043203 | 16 | 92 | 1.6 | 4.8 | 0.00 | 0.00 | 0.00 | 87 | 1010.2 |
| 20260902040704 | 16 | 108 | 3.2 | 4.8 | 0.00 | 0.00 | 0.00 | 87 | 1010.2 |
| 20260902040203 | 16 | 90 | 3.2 | 4.8 | 0.00 | 0.00 | 0.00 | 86 | 1010.2 |
| 20260902033704 | 16 | 128 | 3.2 | 4.8 | 0.00 | 0.00 | 0.00 | 86 | 1010.2 |
| 20260902033204 | 16 | 124 | 3.2 | 8.0 | 0.00 | 0.00 | 0.00 | 86 | 1010.3 |
| 20260902030704 | 16 | 170 | 3.2 | 9.7 | 0.00 | 0.00 | 0.00 | 84 | 1010.1 |
| 20260902030204 | 16 | 162 | 3.2 | 16.1 | 0.00 | 0.00 | 0.00 | 83 | 1010.0 |
| 20260902023704 | 18 | 216 | 8.0 | 16.1 | 0.00 | 0.00 | 0.00 | 79 | 1009.8 |
| 20260902020704 | 18 | 155 | 1.6 | 8.0 | 0.00 | 0.00 | 0.00 | 76 | 1009.7 |
| 20260902020204 | 18 | 158 | 1.6 | 11.3 | 0.00 | 0.00 | 0.00 | 76 | 1009.6 |
| 20260902013704 | 18 | 153 | 1.6 | 4.8 | 0.00 | 0.00 | 0.00 | 77 | 1009.7 |
| 20260902010704 | 18 | 224 | 1.6 | 12.9 | 0.00 | 0.00 | 0.00 | 74 | 1009.7 |
| 20260902010204 | 18 | 198 | 3.2 | 12.9 | 0.00 | 0.00 | 0.00 | 74 | 1009.7 |
| 20260902003704 | 18 | 159 | 4.8 | 11.3 | 0.00 | 0.00 | 0.00 | 74 | 1009.7 |
| 20260902003204 | 18 | 173 | 3.2 | 11.3 | 0.00 | 0.00 | 0.00 | 75 | 1009.8 |
| 20260902000703 | 18 | 254 | 1.6 | 4.8 | 0.00 | 0.00 | 0.00 | 75 | 1009.7 |
| 20260902000204 | 18 | 223 | 4.8 | 14.5 | 0.00 | 0.00 | 0.00 | 75 | 1009.7 |
| 20260901233704 | 18 | 210 | 4.8 | 14.5 | 0.00 | 0.00 | 0.00 | 74 | 1009.7 |
| 20260901230704 | 18 | 186 | 6.4 | 11.3 | 0.00 | 0.00 | 0.00 | 75 | 1009.7 |
| 20260901230204 | 18 | 210 | 1.6 | 16.1 | 0.00 | 0.00 | 0.00 | 76 | 1009.7 |
| 20260901223704 | 18 | 185 | 1.6 | 11.3 | 0.00 | 0.00 | 0.00 | 75 | 1009.8 |
| 20260901220704 | 18 | 232 | 4.8 | 12.9 | 0.00 | 0.00 | 0.00 | 75 | 1009.8 |
| 20260901220204 | 18 | 208 | 6.4 | 19.3 | 0.00 | 0.00 | 0.00 | 74 | 1009.8 |
| 20260901213703 | 18 | 255 | 4.8 | 12.9 | 0.00 | 0.00 | 0.00 | 74 | 1009.7 |
| 20260901213204 | 18 | 226 | 8.0 | 19.3 | 0.00 | 0.00 | 0.00 | 74 | 1009.7 |
| 20260901210205 | 18 | 218 | 3.2 | 14.5 | 0.00 | 0.00 | 0.00 | 74 | 1009.8 |